Time,TemperatureF,DewpointF,PressureIn,WindDirection,WindDirectionDegrees,WindSpeedMPH,WindSpeedGustMPH,Humidity,HourlyPrecipIn,Conditions,Clouds,dailyrainin,SoftwareType,DateUTC
2015-07-31 00:04:00,75.0,73.0,30.02,SSW,213,2.0,4.0,92,-99.99,,,-99.99,,2015-07-31 04:04:00,
2015-07-31 00:13:00,75.0,73.0,30.02,SSW,213,2.0,4.0,92,-99.99,,,-99.99,,2015-07-31 04:13:00,
2015-07-31 00:23:00,75.0,73.0,30.02,SSW,213,2.0,4.0,92,-99.99,,,-99.99,,2015-07-31 04:23:00,
2015-07-31 00:44:00,75.0,73.0,30.01,SSW,197,3.0,6.0,92,-99.99,,,-99.99,,2015-07-31 04:44:00,
2015-07-31 00:54:00,76.0,73.0,30.01,SSW,200,4.0,6.0,92,-99.99,,,-99.99,,2015-07-31 04:54:00,
2015-07-31 01:04:00,76.0,73.0,30.01,SSW,201,3.0,7.0,91,-99.99,,,-99.99,,2015-07-31 05:04:00,
2015-07-31 01:13:00,75.0,72.0,30.00,SW,215,3.0,5.0,91,-99.99,,,-99.99,,2015-07-31 05:13:00,
2015-07-31 01:23:00,75.0,72.0,30.00,SW,215,3.0,5.0,91,-99.99,,,-99.99,,2015-07-31 05:23:00,
2015-07-31 01:33:00,75.0,72.0,30.00,SW,215,3.0,5.0,91,-99.99,,,-99.99,,2015-07-31 05:33:00,
2015-07-31 01:46:00,76.0,73.0,30.00,SSW,211,3.0,6.0,92,-99.99,,,-99.99,,2015-07-31 05:46:00,
2015-07-31 01:54:00,76.0,73.0,30.00,SSW,211,3.0,6.0,92,-99.99,,,-99.99,,2015-07-31 05:54:00,
2015-07-31 02:04:00,76.0,73.0,29.99,SSW,209,3.0,5.0,92,-99.99,,,-99.99,,2015-07-31 06:04:00,
2015-07-31 02:13:00,76.0,73.0,29.99,SSW,209,3.0,5.0,92,-99.99,,,-99.99,,2015-07-31 06:13:00,
2015-07-31 02:23:00,76.0,73.0,29.99,SSW,209,3.0,5.0,92,-99.99,,,-99.99,,2015-07-31 06:23:00,
2015-07-31 02:44:00,76.0,73.0,29.99,SSW,211,3.0,5.0,92,-99.99,,,-99.99,,2015-07-31 06:44:00,
2015-07-31 02:54:00,76.0,73.0,29.99,SW,223,3.0,6.0,92,-99.99,,,-99.99,,2015-07-31 06:54:00,
2015-07-31 03:03:00,76.0,73.0,29.98,SW,219,4.0,6.0,92,-99.99,,,-99.99,,2015-07-31 07:03:00,
2015-07-31 03:13:00,76.0,73.0,29.98,SW,219,4.0,6.0,92,-99.99,,,-99.99,,2015-07-31 07:13:00,
2015-07-31 03:33:00,76.0,73.0,29.98,SW,215,4.0,6.0,92,-99.99,,,-99.99,,2015-07-31 07:33:00,
2015-07-31 03:43:00,76.0,73.0,29.98,SW,218,3.0,7.0,92,-99.99,,,-99.99,,2015-07-31 07:43:00,
2015-07-31 03:54:00,76.0,73.0,29.98,SSW,212,3.0,5.0,92,-99.99,,,-99.99,,2015-07-31 07:54:00,
2015-07-31 04:03:00,76.0,73.0,29.97,SW,220,3.0,5.0,93,-99.99,,,-99.99,,2015-07-31 08:03:00,
2015-07-31 04:13:00,76.0,73.0,29.97,SW,220,3.0,-999.0,93,-99.99,,,-99.99,,2015-07-31 08:13:00,
2015-07-31 04:33:00,76.0,74.0,29.97,SW,226,4.0,6.0,93,-99.99,,,-99.99,,2015-07-31 08:33:00,
2015-07-31 04:43:00,76.0,74.0,29.97,SSW,212,3.0,6.0,93,-99.99,,,-99.99,,2015-07-31 08:43:00,
2015-07-31 04:53:00,76.0,74.0,29.97,SSW,210,3.0,5.0,93,-99.99,,,-99.99,,2015-07-31 08:53:00,
2015-07-31 05:03:00,76.0,74.0,29.98,SSW,199,3.0,6.0,93,-99.99,,,-99.99,,2015-07-31 09:03:00,
2015-07-31 05:13:00,76.0,74.0,29.98,SSW,199,3.0,6.0,93,-99.99,,,-99.99,,2015-07-31 09:13:00,
2015-07-31 05:33:00,76.0,74.0,29.98,SSW,212,3.0,6.0,93,-99.99,,,-99.99,,2015-07-31 09:33:00,
2015-07-31 05:43:00,76.0,74.0,29.98,SSW,201,4.0,8.0,93,-99.99,,,-99.99,,2015-07-31 09:43:00,
2015-07-31 05:54:00,76.0,74.0,29.98,SSW,199,3.0,6.0,93,-99.99,,,-99.99,,2015-07-31 09:54:00,
2015-07-31 06:03:00,76.0,74.0,29.98,SSW,208,3.0,6.0,93,-99.99,,,-99.99,,2015-07-31 10:03:00,
2015-07-31 06:12:00,76.0,74.0,29.98,SSW,208,3.0,6.0,93,-99.99,,,-99.99,,2015-07-31 10:12:00,
2015-07-31 06:33:00,76.0,74.0,29.98,SSW,208,3.0,5.0,93,-99.99,,,-99.99,,2015-07-31 10:33:00,
2015-07-31 06:44:00,76.0,74.0,29.98,SSW,203,3.0,5.0,93,-99.99,,,-99.99,,2015-07-31 10:44:00,
2015-07-31 06:54:00,76.0,74.0,29.98,SSW,206,4.0,7.0,93,-99.99,,,-99.99,,2015-07-31 10:54:00,
2015-07-31 07:03:00,76.0,74.0,29.98,SW,215,3.0,6.0,93,-99.99,,,-99.99,,2015-07-31 11:03:00,
2015-07-31 07:13:00,76.0,74.0,29.98,SW,215,3.0,6.0,93,-99.99,,,-99.99,,2015-07-31 11:13:00,
2015-07-31 07:36:00,76.0,74.0,29.98,SSW,202,5.0,9.0,93,-99.99,,,-99.99,,2015-07-31 11:36:00,
2015-07-31 07:44:00,76.0,74.0,29.98,SSW,202,5.0,9.0,93,-99.99,,,-99.99,,2015-07-31 11:44:00,
2015-07-31 07:54:00,76.0,73.0,29.99,SSW,207,4.0,7.0,92,-99.99,,,-99.99,,2015-07-31 11:54:00,
2015-07-31 08:03:00,76.0,73.0,30.00,SSW,205,4.0,9.0,91,-99.99,,,-99.99,,2015-07-31 12:03:00,
2015-07-31 08:13:00,76.0,73.0,30.00,SSW,205,4.0,9.0,91,-99.99,,,-99.99,,2015-07-31 12:13:00,
2015-07-31 08:23:00,76.0,73.0,30.00,SSW,198,4.0,7.0,90,-99.99,,,-99.99,,2015-07-31 12:23:00,
2015-07-31 08:34:00,76.0,73.0,30.00,SSW,198,4.0,7.0,90,-99.99,,,-99.99,,2015-07-31 12:34:00,
2015-07-31 08:44:00,76.0,73.0,30.00,SSW,208,5.0,7.0,90,-99.99,,,-99.99,,2015-07-31 12:44:00,
2015-07-31 08:54:00,77.0,73.0,30.01,SW,217,4.0,7.0,89,-99.99,,,-99.99,,2015-07-31 12:54:00,
2015-07-31 09:13:00,77.0,73.0,30.01,SW,216,5.0,8.0,88,-99.99,,,-99.99,,2015-07-31 13:13:00,
2015-07-31 09:34:00,77.0,73.0,30.02,SW,222,4.0,9.0,88,-99.99,,,-99.99,,2015-07-31 13:34:00,
2015-07-31 09:43:00,77.0,73.0,30.02,SW,217,3.0,6.0,88,-99.99,,,-99.99,,2015-07-31 13:43:00,
2015-07-31 10:03:00,78.0,74.0,30.03,SW,217,4.0,8.0,87,-99.99,,,-99.99,,2015-07-31 14:03:00,
2015-07-31 10:13:00,78.0,74.0,30.03,SW,217,4.0,-999.0,87,-99.99,,,-99.99,,2015-07-31 14:13:00,
2015-07-31 10:23:00,78.0,74.0,30.03,SW,217,4.0,8.0,87,-99.99,,,-99.99,,2015-07-31 14:23:00,
2015-07-31 10:35:00,78.0,74.0,30.02,SSW,202,5.0,8.0,87,-99.99,,,-99.99,,2015-07-31 14:35:00,
2015-07-31 10:43:00,78.0,74.0,30.02,SSW,206,5.0,8.0,87,-99.99,,,-99.99,,2015-07-31 14:43:00,
2015-07-31 10:54:00,79.0,74.0,30.02,SSW,206,5.0,9.0,86,-99.99,,,-99.99,,2015-07-31 14:54:00,
2015-07-31 11:04:00,80.0,75.0,30.02,SSW,194,5.0,10.0,85,-99.99,,,-99.99,,2015-07-31 15:04:00,
2015-07-31 11:13:00,80.0,75.0,30.02,SSW,194,5.0,10.0,85,-99.99,,,-99.99,,2015-07-31 15:13:00,
2015-07-31 11:33:00,80.0,75.0,30.03,SSW,195,6.0,11.0,83,-99.99,,,-99.99,,2015-07-31 15:33:00,
2015-07-31 11:44:00,81.0,75.0,30.03,SSW,210,5.0,9.0,81,-99.99,,,-99.99,,2015-07-31 15:44:00,
2015-07-31 11:54:00,81.0,75.0,30.03,SW,218,5.0,10.0,81,-99.99,,,-99.99,,2015-07-31 15:54:00,
2015-07-31 12:04:00,82.0,75.0,30.03,SSW,207,5.0,10.0,80,-99.99,,,-99.99,,2015-07-31 16:04:00,
2015-07-31 12:14:00,82.0,75.0,30.03,SSW,207,5.0,10.0,80,-99.99,,,-99.99,,2015-07-31 16:14:00,
2015-07-31 12:24:00,82.0,75.0,30.03,SSW,207,5.0,10.0,80,-99.99,,,-99.99,,2015-07-31 16:24:00,
2015-07-31 12:34:00,83.0,76.0,30.02,SSW,201,5.0,9.0,79,-99.99,,,-99.99,,2015-07-31 16:34:00,
2015-07-31 13:04:00,84.0,74.0,30.01,SSW,212,7.0,13.0,72,-99.99,,,-99.99,,2015-07-31 17:04:00,
2015-07-31 13:13:00,84.0,74.0,30.01,SSW,212,7.0,13.0,72,-99.99,,,-99.99,,2015-07-31 17:13:00,
2015-07-31 13:23:00,84.0,74.0,30.01,SSW,212,7.0,13.0,72,-99.99,,,-99.99,,2015-07-31 17:23:00,
2015-07-31 13:36:00,84.0,74.0,30.00,SSW,212,8.0,14.0,70,-99.99,,,-99.99,,2015-07-31 17:36:00,
2015-07-31 13:44:00,85.0,73.0,30.00,SSW,211,7.0,12.0,66,-99.99,,,-99.99,,2015-07-31 17:44:00,
2015-07-31 13:54:00,88.0,74.0,30.00,SSW,208,8.0,16.0,63,-99.99,,,-99.99,,2015-07-31 17:54:00,
2015-07-31 14:04:00,89.0,73.0,29.99,SW,217,8.0,13.0,59,-99.99,,,-99.99,,2015-07-31 18:04:00,
2015-07-31 14:13:00,89.0,73.0,29.99,SW,217,8.0,13.0,59,-99.99,,,-99.99,,2015-07-31 18:13:00,
2015-07-31 14:34:00,89.0,73.0,29.99,SSW,208,9.0,17.0,58,-99.99,,,-99.99,,2015-07-31 18:34:00,
2015-07-31 14:44:00,90.0,74.0,29.99,SW,234,8.0,16.0,58,-99.99,,,-99.99,,2015-07-31 18:44:00,
2015-07-31 14:54:00,89.0,74.0,29.98,SW,232,8.0,15.0,59,-99.99,,,-99.99,,2015-07-31 18:54:00,
2015-07-31 15:04:00,90.0,73.0,29.98,WSW,245,7.0,12.0,57,-99.99,,,-99.99,,2015-07-31 19:04:00,
2015-07-31 15:13:00,90.0,73.0,29.98,WSW,245,7.0,12.0,57,-99.99,,,-99.99,,2015-07-31 19:13:00,
2015-07-31 15:34:00,90.0,73.0,29.97,SW,228,8.0,13.0,56,-99.99,,,-99.99,,2015-07-31 19:34:00,
2015-07-31 15:46:00,90.0,71.0,29.97,SW,233,8.0,14.0,52,-99.99,,,-99.99,,2015-07-31 19:46:00,
2015-07-31 15:54:00,90.0,71.0,29.97,SW,233,8.0,14.0,52,-99.99,,,-99.99,,2015-07-31 19:54:00,
2015-07-31 16:05:00,91.0,71.0,29.96,SW,227,7.0,15.0,51,-99.99,,,-99.99,,2015-07-31 20:05:00,
2015-07-31 16:13:00,91.0,71.0,29.96,SW,227,7.0,15.0,51,-99.99,,,-99.99,,2015-07-31 20:13:00,
2015-07-31 16:23:00,91.0,71.0,29.96,SW,227,7.0,15.0,51,-99.99,,,-99.99,,2015-07-31 20:23:00,
2015-07-31 16:34:00,91.0,72.0,29.96,SSW,207,6.0,13.0,52,-99.99,,,-99.99,,2015-07-31 20:34:00,
2015-07-31 16:44:00,88.0,76.0,29.97,SSE,149,6.0,12.0,66,-99.99,,,-99.99,,2015-07-31 20:44:00,
2015-07-31 16:54:00,86.0,77.0,29.96,SE,132,7.0,16.0,73,-99.99,,,-99.99,,2015-07-31 20:54:00,
2015-07-31 17:03:00,83.0,72.0,29.95,ESE,120,11.0,20.0,67,-99.99,,,-99.99,,2015-07-31 21:03:00,